| time (UTC) | temp C | wind direction | speed KPH | gust KPH | rain 1hr cm | rain 24hr cm | rain mn cm | humidity % | barometer mb |
| 20260504050304 | 10 | 329 | 0.0 | 0.0 | 0.00 | 0.00 | 0.00 | 63 | 1005.6 |
| 20260504045804 | 10 | 329 | 0.0 | 0.0 | 0.00 | 0.00 | 0.00 | 62 | 1005.6 |
| 20260504043804 | 11 | 329 | 0.0 | 0.0 | 0.00 | 0.00 | 0.00 | 57 | 1006.0 |
| 20260504043304 | 11 | 329 | 0.0 | 0.0 | 0.00 | 0.00 | 0.00 | 56 | 1005.9 |
| 20260504042804 | 12 | 329 | 0.0 | 0.0 | 0.00 | 0.00 | 0.00 | 54 | 1006.0 |
| 20260504041804 | 12 | 329 | 0.0 | 0.0 | 0.00 | 0.00 | 0.00 | 52 | 1006.1 |
| 20260504041304 | 13 | 329 | 0.0 | 1.6 | 0.00 | 0.00 | 0.00 | 50 | 1006.2 |
| 20260504040304 | 13 | 329 | 0.0 | 4.8 | 0.00 | 0.00 | 0.00 | 49 | 1006.2 |
| 20260504035803 | 13 | 329 | 0.0 | 0.0 | 0.00 | 0.00 | 0.00 | 48 | 1006.3 |
| 20260504034804 | 14 | 329 | 0.0 | 1.6 | 0.00 | 0.00 | 0.00 | 46 | 1006.4 |
| 20260504033804 | 15 | 329 | 1.6 | 1.6 | 0.00 | 0.00 | 0.00 | 45 | 1006.4 |
| 20260504033304 | 15 | 329 | 0.0 | 4.8 | 0.00 | 0.00 | 0.00 | 45 | 1006.4 |
| 20260504032804 | 15 | 329 | 1.6 | 4.8 | 0.00 | 0.00 | 0.00 | 44 | 1006.4 |
| 20260504032304 | 15 | 329 | 0.0 | 4.8 | 0.00 | 0.00 | 0.00 | 43 | 1006.4 |
| 20260504031804 | 15 | 329 | 3.2 | 4.8 | 0.00 | 0.00 | 0.00 | 43 | 1006.5 |
| 20260504030804 | 16 | 329 | 0.0 | 4.8 | 0.00 | 0.00 | 0.00 | 41 | 1006.5 |
| 20260504030304 | 16 | 329 | 1.6 | 4.8 | 0.00 | 0.00 | 0.00 | 41 | 1006.5 |
| 20260504025804 | 16 | 329 | 0.0 | 4.8 | 0.00 | 0.00 | 0.00 | 41 | 1006.5 |
| 20260504025304 | 16 | 329 | 0.0 | 4.8 | 0.00 | 0.00 | 0.00 | 41 | 1006.5 |
| 20260504024803 | 16 | 329 | 0.0 | 4.8 | 0.00 | 0.00 | 0.00 | 41 | 1006.3 |
| 20260504023804 | 17 | 329 | 1.6 | 4.8 | 0.00 | 0.00 | 0.00 | 39 | 1006.3 |
| 20260504023304 | 17 | 329 | 1.6 | 4.8 | 0.00 | 0.00 | 0.00 | 39 | 1006.2 |
| 20260504022305 | 17 | 329 | 0.0 | 4.8 | 0.00 | 0.00 | 0.00 | 38 | 1006.1 |
| 20260504021804 | 17 | 329 | 0.0 | 4.8 | 0.00 | 0.00 | 0.00 | 37 | 1006.1 |
| 20260504021304 | 17 | 329 | 0.0 | 4.8 | 0.00 | 0.00 | 0.00 | 37 | 1006.0 |
| 20260504020803 | 18 | 329 | 3.2 | 8.0 | 0.00 | 0.00 | 0.00 | 36 | 1006.0 |
| 20260504020304 | 18 | 329 | 1.6 | 8.0 | 0.00 | 0.00 | 0.00 | 35 | 1006.0 |
| 20260504015804 | 18 | 330 | 4.8 | 8.0 | 0.00 | 0.00 | 0.00 | 35 | 1005.9 |
| 20260504015304 | 18 | 330 | 8.0 | 8.0 | 0.00 | 0.00 | 0.00 | 35 | 1005.9 |
| 20260504014804 | 18 | 330 | 3.2 | 8.0 | 0.00 | 0.00 | 0.00 | 34 | 1005.9 |
| 20260504014304 | 18 | 330 | 1.6 | 8.0 | 0.00 | 0.00 | 0.00 | 34 | 1005.9 |
| 20260504013804 | 18 | 330 | 3.2 | 8.0 | 0.00 | 0.00 | 0.00 | 33 | 1005.8 |
| 20260504013304 | 18 | 330 | 1.6 | 4.8 | 0.00 | 0.00 | 0.00 | 33 | 1005.8 |
| 20260504012805 | 19 | 330 | 1.6 | 8.0 | 0.00 | 0.00 | 0.00 | 32 | 1005.8 |
| 20260504010805 | 20 | 330 | 1.6 | 4.8 | 0.00 | 0.00 | 0.00 | 30 | 1005.6 |
| 20260504010304 | 20 | 330 | 3.2 | 8.0 | 0.00 | 0.00 | 0.00 | 29 | 1005.6 |
| 20260504005804 | 20 | 330 | 4.8 | 11.3 | 0.00 | 0.00 | 0.00 | 29 | 1005.5 |
| 20260504005305 | 21 | 316 | 8.0 | 11.3 | 0.00 | 0.00 | 0.00 | 28 | 1005.6 |
| 20260504004804 | 21 | 320 | 4.8 | 12.9 | 0.00 | 0.00 | 0.00 | 28 | 1005.5 |
| 20260504004304 | 21 | 327 | 4.8 | 12.9 | 0.00 | 0.00 | 0.00 | 28 | 1005.5 |
| 20260504003304 | 21 | 296 | 9.7 | 16.1 | 0.00 | 0.00 | 0.00 | 26 | 1005.5 |
| 20260504002804 | 22 | 316 | 9.7 | 22.5 | 0.00 | 0.00 | 0.00 | 26 | 1005.4 |
| 20260504002304 | 22 | 308 | 11.3 | 22.5 | 0.00 | 0.00 | 0.00 | 25 | 1005.4 |
| 20260504001806 | 22 | 289 | 9.7 | 16.1 | 0.00 | 0.00 | 0.00 | 25 | 1005.4 |
| 20260504001305 | 22 | 288 | 8.0 | 16.1 | 0.00 | 0.00 | 0.00 | 25 | 1005.4 |
| 20260504000806 | 22 | 274 | 8.0 | 16.1 | 0.00 | 0.00 | 0.00 | 25 | 1005.4 |
| 20260504000306 | 22 | 334 | 9.7 | 19.3 | 0.00 | 0.00 | 0.00 | 25 | 1005.3 |
| 20260503235806 | 22 | 292 | 14.5 | 22.5 | 0.00 | 0.00 | 0.00 | 25 | 1005.3 |
| 20260503235306 | 23 | 323 | 9.7 | 22.5 | 0.00 | 0.00 | 0.00 | 25 | 1005.3 |
| 20260503234306 | 23 | 286 | 14.5 | 24.1 | 0.00 | 0.00 | 0.00 | 25 | 1005.1 |
| 20260503233806 | 23 | 357 | 8.0 | 19.3 | 0.00 | 0.00 | 0.00 | 26 | 1005.2 |
| 20260503233305 | 23 | 299 | 8.0 | 16.1 | 0.00 | 0.00 | 0.00 | 27 | 1005.2 |
| 20260503232805 | 23 | 305 | 4.8 | 11.3 | 0.00 | 0.00 | 0.00 | 28 | 1005.2 |
| 20260503231305 | 23 | 284 | 8.0 | 19.3 | 0.00 | 0.00 | 0.00 | 27 | 1005.2 |
| 20260503230306 | 23 | 326 | 9.7 | 19.3 | 0.00 | 0.00 | 0.00 | 27 | 1005.2 |
| 20260503225806 | 23 | 314 | 17.7 | 27.4 | 0.00 | 0.00 | 0.00 | 27 | 1005.2 |
| 20260503225306 | 23 | 318 | 6.4 | 27.4 | 0.00 | 0.00 | 0.00 | 28 | 1005.1 |
| 20260503224805 | 23 | 332 | 9.7 | 19.3 | 0.00 | 0.00 | 0.00 | 28 | 1005.2 |
| 20260503224305 | 23 | 258 | 9.7 | 19.3 | 0.00 | 0.00 | 0.00 | 26 | 1005.2 |
| 20260503223806 | 23 | 322 | 9.7 | 22.5 | 0.00 | 0.00 | 0.00 | 28 | 1005.2 |
| 20260503223305 | 24 | 314 | 14.5 | 22.5 | 0.00 | 0.00 | 0.00 | 28 | 1005.2 |
| 20260503222806 | 23 | 277 | 9.7 | 22.5 | 0.00 | 0.00 | 0.00 | 27 | 1005.1 |
| 20260503222305 | 24 | 337 | 16.1 | 22.5 | 0.00 | 0.00 | 0.00 | 27 | 1005.0 |
| 20260503221806 | 23 | 310 | 11.3 | 24.1 | 0.00 | 0.00 | 0.00 | 28 | 1005.0 |
| 20260503220306 | 24 | 293 | 14.5 | 24.1 | 0.00 | 0.00 | 0.00 | 27 | 1005.0 |
| 20260503215806 | 24 | 267 | 17.7 | 29.0 | 0.00 | 0.00 | 0.00 | 26 | 1005.0 |
| 20260503215305 | 24 | 259 | 19.3 | 29.0 | 0.00 | 0.00 | 0.00 | 25 | 1004.8 |
| 20260503214305 | 24 | 257 | 14.5 | 27.4 | 0.00 | 0.00 | 0.00 | 25 | 1004.9 |
| 20260503213805 | 24 | 256 | 14.5 | 24.1 | 0.00 | 0.00 | 0.00 | 25 | 1004.9 |
| 20260503213305 | 24 | 257 | 16.1 | 27.4 | 0.00 | 0.00 | 0.00 | 26 | 1004.9 |
| 20260503212805 | 24 | 292 | 17.7 | 27.4 | 0.00 | 0.00 | 0.00 | 27 | 1004.9 |
| 20260503212306 | 24 | 292 | 24.1 | 27.4 | 0.00 | 0.00 | 0.00 | 27 | 1004.8 |
| 20260503211805 | 24 | 356 | 11.3 | 24.1 | 0.00 | 0.00 | 0.00 | 30 | 1004.9 |
| 20260503211306 | 24 | 307 | 19.3 | 24.1 | 0.00 | 0.00 | 0.00 | 29 | 1004.9 |
| 20260503210806 | 25 | 304 | 20.9 | 24.1 | 0.00 | 0.00 | 0.00 | 27 | 1005.0 |
| 20260503210305 | 24 | 296 | 14.5 | 29.0 | 0.00 | 0.00 | 0.00 | 27 | 1004.9 |
| 20260503205306 | 25 | 292 | 16.1 | 29.0 | 0.00 | 0.00 | 0.00 | 27 | 1005.1 |
| 20260503204806 | 24 | 291 | 14.5 | 40.2 | 0.00 | 0.00 | 0.00 | 27 | 1005.1 |
| 20260503204306 | 24 | 258 | 19.3 | 40.2 | 0.00 | 0.00 | 0.00 | 25 | 1005.0 |
| 20260503203805 | 24 | 269 | 22.5 | 40.2 | 0.00 | 0.00 | 0.00 | 25 | 1005.1 |
| 20260503202806 | 24 | 325 | 17.7 | 29.0 | 0.00 | 0.00 | 0.00 | 29 | 1005.1 |
| 20260503202305 | 24 | 321 | 20.9 | 29.0 | 0.00 | 0.00 | 0.00 | 27 | 1005.2 |
| 20260503201806 | 24 | 330 | 22.5 | 29.0 | 0.00 | 0.00 | 0.00 | 28 | 1005.1 |
| 20260503200805 | 24 | 281 | 19.3 | 38.6 | 0.00 | 0.00 | 0.00 | 30 | 1005.1 |
| 20260503200306 | 24 | 261 | 17.7 | 38.6 | 0.00 | 0.00 | 0.00 | 31 | 1005.2 |
| 20260503195805 | 24 | 253 | 22.5 | 27.4 | 0.00 | 0.00 | 0.00 | 29 | 1005.2 |
| 20260503195305 | 23 | 284 | 11.3 | 27.4 | 0.00 | 0.00 | 0.00 | 31 | 1005.2 |
| 20260503194806 | 23 | 299 | 19.3 | 33.8 | 0.00 | 0.00 | 0.00 | 30 | 1005.2 |
| 20260503193805 | 23 | 274 | 20.9 | 29.0 | 0.00 | 0.00 | 0.00 | 31 | 1005.4 |
| 20260503193306 | 23 | 300 | 14.5 | 29.0 | 0.00 | 0.00 | 0.00 | 34 | 1005.4 |
| 20260503192806 | 23 | 261 | 14.5 | 40.2 | 0.00 | 0.00 | 0.00 | 35 | 1005.5 |
| 20260503192305 | 23 | 248 | 16.1 | 40.2 | 0.00 | 0.00 | 0.00 | 37 | 1005.6 |
| 20260503191305 | 23 | 315 | 22.5 | 35.4 | 0.00 | 0.00 | 0.00 | 36 | 1005.7 |
| 20260503190805 | 23 | 280 | 16.1 | 24.1 | 0.00 | 0.00 | 0.00 | 37 | 1005.7 |
| 20260503185805 | 23 | 296 | 9.7 | 24.1 | 0.00 | 0.00 | 0.00 | 39 | 1005.8 |
| 20260503185305 | 22 | 304 | 12.9 | 24.1 | 0.00 | 0.00 | 0.00 | 39 | 1005.9 |
| 20260503184805 | 22 | 283 | 22.5 | 27.4 | 0.00 | 0.00 | 0.00 | 38 | 1005.9 |
| 20260503184306 | 22 | 316 | 16.1 | 27.4 | 0.00 | 0.00 | 0.00 | 38 | 1005.9 |
| 20260503183305 | 22 | 303 | 14.5 | 29.0 | 0.00 | 0.00 | 0.00 | 41 | 1006.1 |
| 20260503182805 | 22 | 307 | 16.1 | 29.0 | 0.00 | 0.00 | 0.00 | 43 | 1006.2 |
| 20260503182306 | 21 | 238 | 25.7 | 29.0 | 0.00 | 0.00 | 0.00 | 40 | 1006.2 |
| 20260503181806 | 21 | 283 | 14.5 | 27.4 | 0.00 | 0.00 | 0.00 | 43 | 1006.4 |
| 20260503181305 | 21 | 258 | 14.5 | 33.8 | 0.00 | 0.00 | 0.00 | 43 | 1006.4 |
| 20260503180805 | 21 | 259 | 19.3 | 33.8 | 0.00 | 0.00 | 0.00 | 43 | 1006.5 |
| 20260503180306 | 21 | 216 | 20.9 | 27.4 | 0.00 | 0.00 | 0.00 | 42 | 1006.6 |
| 20260503175306 | 21 | 267 | 16.1 | 27.4 | 0.00 | 0.00 | 0.00 | 42 | 1006.8 |
| 20260503174805 | 20 | 233 | 22.5 | 33.8 | 0.00 | 0.00 | 0.00 | 42 | 1006.8 |
| 20260503174305 | 20 | 216 | 12.9 | 33.8 | 0.00 | 0.00 | 0.00 | 45 | 1006.9 |
| 20260503173805 | 20 | 238 | 27.4 | 29.0 | 0.00 | 0.00 | 0.00 | 42 | 1007.0 |
| 20260503173306 | 20 | 260 | 20.9 | 29.0 | 0.00 | 0.00 | 0.00 | 44 | 1007.1 |
| 20260503172805 | 20 | 308 | 16.1 | 22.5 | 0.00 | 0.00 | 0.00 | 45 | 1007.1 |
| 20260503172305 | 20 | 242 | 20.9 | 22.5 | 0.00 | 0.00 | 0.00 | 44 | 1007.1 |
| 20260503171805 | 19 | 253 | 16.1 | 24.1 | 0.00 | 0.00 | 0.00 | 45 | 1007.2 |
| 20260503171306 | 19 | 264 | 19.3 | 27.4 | 0.00 | 0.00 | 0.00 | 44 | 1007.3 |
| 20260503170805 | 19 | 272 | 16.1 | 29.0 | 0.00 | 0.00 | 0.00 | 45 | 1007.3 |
| 20260503150805 | 15 | 256 | 20.9 | 40.2 | 0.00 | 0.00 | 0.00 | 51 | 1008.4 |
| 20260503150306 | 15 | 219 | 27.4 | 40.2 | 0.00 | 0.00 | 0.00 | 50 | 1008.5 |
| 20260503140305 | 12 | 209 | 11.3 | 22.5 | 0.00 | 0.00 | 0.00 | 58 | 1009.1 |
| 20260503130305 | 11 | 156 | 8.0 | 27.4 | 0.00 | 0.00 | 0.00 | 58 | 1009.5 |
| 20260503110805 | 11 | 118 | 8.0 | 12.9 | 0.00 | 0.00 | 0.00 | 57 | 1010.3 |
| 20260503110305 | 11 | 153 | 12.9 | 12.9 | 0.00 | 0.00 | 0.00 | 57 | 1010.3 |
| 20260503090305 | 10 | 217 | 4.8 | 11.3 | 0.00 | 0.00 | 0.00 | 56 | 1012.6 |
| 20260503081305 | 11 | 236 | 12.9 | 19.3 | 0.00 | 0.00 | 0.00 | 55 | 1012.7 |
| 20260503080805 | 11 | 255 | 3.2 | 8.0 | 0.00 | 0.00 | 0.00 | 55 | 1012.9 |
| 20260503080305 | 11 | 218 | 4.8 | 12.9 | 0.00 | 0.00 | 0.00 | 55 | 1012.8 |
| 20260503072306 | 11 | 260 | 12.9 | 16.1 | 0.00 | 0.00 | 0.00 | 54 | 1012.8 |
| 20260503071805 | 11 | 263 | 3.2 | 11.3 | 0.00 | 0.00 | 0.00 | 54 | 1012.8 |
| 20260503071305 | 11 | 185 | 6.4 | 12.9 | 0.00 | 0.00 | 0.00 | 54 | 1012.8 |
| 20260503070805 | 11 | 179 | 12.9 | 12.9 | 0.00 | 0.00 | 0.00 | 54 | 1012.9 |
| 20260503070305 | 11 | 271 | 1.6 | 16.1 | 0.00 | 0.00 | 0.00 | 55 | 1012.8 |